BEAR Weather Reports


time (UTC)temp
C
wind
direction
speed
KPH
gust
KPH
rain 1hr
cm
rain 24hr
cm
rain mn
cm
humidity
%
barometer
mb
20260503034541 1 66 0.0 4.8 0.00 0.00 0.00 95 1013.4
20260503033048 1 104 0.0 3.2 0.00 0.00 0.00 95 1013.4
20260503031511 1 104 0.0 1.6 0.00 0.00 0.00 95 1013.4
20260503030010 1 102 1.6 8.0 0.00 0.00 0.00 95 1013.6
20260503024506 1 47 0.0 6.4 0.00 0.00 0.00 94 1013.6
20260503023005 1 77 0.0 6.4 0.00 0.00 0.00 95 1013.7
20260503021503 1 101 1.6 3.2 0.00 0.00 0.00 95 1013.8
20260503020002 1 103 0.0 3.2 0.00 0.00 0.00 94 1013.9
20260503014558 1 101 0.0 3.2 0.00 0.00 0.00 94 1014.0
20260503013103 1 100 0.0 3.2 0.00 0.00 0.00 94 1013.9
20260503011606 1 98 0.0 3.2 0.00 0.00 0.00 94 1014.0
20260503010119 2 98 1.6 6.4 0.00 0.00 0.00 93 1013.9
20260503004527 2 101 0.0 4.8 0.00 0.00 0.00 94 1013.7
20260503003024 2 38 0.0 4.8 0.00 0.00 0.00 94 1013.4
20260503001521 2 49 0.0 3.2 0.00 0.00 0.00 94 1013.5
20260503000019 2 47 0.0 3.2 0.00 0.00 0.00 93 1013.5
20260502234516 2 47 0.0 0.0 0.00 0.00 0.00 93 1013.2
20260502233018 2 279 0.0 3.2 0.00 0.00 0.00 93 1013.1
20260502231614 2 279 0.0 3.2 0.00 0.00 0.00 92 1013.2
20260502230045 2 279 0.0 3.2 0.00 0.00 0.00 92 1013.0
20260502224543 2 279 0.0 3.2 0.00 0.00 0.00 89 1012.9
20260502223045 3 279 0.0 6.4 0.00 0.00 0.00 88 1012.8
20260502221545 3 107 0.0 4.8 0.00 0.00 0.00 86 1012.5
20260502220040 3 139 0.0 4.8 0.00 0.00 0.00 86 1012.5
20260502214549 3 284 1.6 6.4 0.00 0.00 0.00 86 1012.4
20260502213009 3 290 1.6 8.0 0.00 0.00 0.00 85 1012.3
20260502211522 4 310 3.2 8.0 0.00 0.00 0.00 85 1012.3
20260502210047 4 323 0.0 3.2 0.00 0.00 0.00 86 1012.3
20260502204537 5 322 1.6 4.8 0.00 0.00 0.00 81 1012.4
20260502203044 5 321 3.2 12.9 0.00 0.00 0.00 78 1012.1
20260502201541 6 360 1.6 6.4 0.00 0.00 0.00 78 1012.0
20260502200034 6 360 3.2 8.0 0.00 0.00 0.00 78 1012.0
20260502194533 6 293 3.2 11.3 0.00 0.00 0.00 76 1012.1
20260502193031 6 264 3.2 8.0 0.00 0.00 0.00 71 1012.0
20260502191630 7 326 3.2 9.7 0.00 0.00 0.00 69 1012.1
20260502190032 7 360 4.8 12.9 0.00 0.00 0.00 66 1012.1
20260502184532 7 259 1.6 8.0 0.00 0.00 0.00 72 1012.1
20260502183025 7 187 3.2 4.8 0.00 0.00 0.00 72 1012.1
20260502181525 6 166 1.6 9.7 0.00 0.00 0.00 74 1012.1
20260502163018 3 275 1.6 6.4 0.00 0.00 0.00 90 1012.6
20260502161510 3 277 3.2 6.4 0.00 0.00 0.00 93 1012.7
20260502151506 3 293 3.2 8.0 0.00 0.00 0.00 95 1013.0
20260502123030 2 157 0.0 0.0 0.00 0.00 0.00 95 1012.8
20260502121530 2 158 0.0 1.6 0.00 0.00 0.00 95 1013.0
20260502114530 2 157 0.0 1.6 0.00 0.00 0.00 95 1012.9
20260502113028 2 157 0.0 1.6 0.00 0.00 0.00 95 1012.6
20260502111523 2 142 0.0 0.0 0.00 0.00 0.00 95 1012.5
20260502110021 2 142 0.0 0.0 0.00 0.00 0.00 96 1012.4
20260502104522 2 142 0.0 0.0 0.00 0.00 0.00 95 1012.3
20260502103019 2 142 0.0 0.0 0.00 0.00 0.00 95 1012.3
20260502101519 2 142 0.0 0.0 0.00 0.00 0.00 95 1012.3
20260502100106 2 142 0.0 1.6 0.00 0.00 0.00 95 1012.2
20260502071527 3 142 0.0 1.6 0.00 0.00 0.00 86 1012.7
20260502070026 3 142 0.0 3.2 0.00 0.00 0.00 84 1012.7
20260502064538 3 142 0.0 3.2 0.00 0.00 0.00 81 1012.7
20260502063023 3 142 0.0 3.2 0.00 0.00 0.00 81 1012.8
20260502061548 4 143 0.0 3.2 0.00 0.00 0.00 79 1012.8
20260502060048 4 143 0.0 3.2 0.00 0.00 0.00 74 1012.9
20260502054542 4 143 0.0 1.6 0.00 0.00 0.00 77 1012.9
20260502053042 4 143 1.6 4.8 0.00 0.00 0.00 73 1012.8
20260502051539 4 143 0.0 3.2 0.00 0.00 0.00 71 1013.1
20260502050038 4 142 0.0 3.2 0.00 0.00 0.00 74 1013.1
20260502044506 4 160 3.2 8.0 0.00 0.00 0.00 70 1013.1
20260502043002 4 78 1.6 4.8 0.00 0.00 0.00 74 1013.1
20260502041605 4 78 0.0 3.2 0.00 0.00 0.00 73 1013.0
20260502040059 3 78 1.6 3.2 0.00 0.00 0.00 80 1012.9